Weather History for Saranac Lake, NY

Change the Weather History Date:

Monday, March 7, 2011

  Actual Average Record
Temperature  
Mean Temperature 8 °F 20 °F  
Max Temperature 19 °F 33 °F 58 °F (1983)
Min Temperature -5 °F 8 °F -35 °F (2007)
Degree Days  
Heating Degree Days 58 44  
Month to date heating degree days 319  
Since 1 July heating degree days 7024  
Cooling Degree Days 0 0  
Month to date cooling degree days 0  
Year to date cooling degree days 0  
Moisture  
Dew Point 10 °F    
Average Humidity 84    
Maximum Humidity 96    
Minimum Humidity 74    
Precipitation  
Precipitation 0.23 in 0.06 in 0.75 in (1963)
Month to date precipitation 0.36  
Year to date precipitation 4.10  
Sea Level Pressure  
Sea Level Pressure 30.02 in    
Wind  
Wind Speed 9 mph (North)    
Max Wind Speed 17 mph    
Max Gust Speed 24 mph    
Visibility 3 miles    
Events Fog , Snow    
T = Trace of Precipitation, MM = Missing Value Source: NWS Daily Summary

Daily Weather History Graph

Daily Weather History Graph

Search for Another Location

Airport:

Trip Planner

Search our weather history database for the weather conditions in past years. The results will help you decide how hot, cold, wet, or windy it might be!

Date:

Astronomy

Mar. 07, 2011 Rise Set
Actual Time 6:24 AM EST 5:52 PM EST
Civil Twilight 5:55 AM EST 6:21 PM EST
Nautical Twilight 5:21 AM EST 6:55 PM EST
Astronomical Twilight 4:47 AM EST 7:28 PM EST
Moon 7:04 AM EST (3/7) 9:00 PM EST (3/7)
Length of Visible Light 12h 26m
Length of Day
11h 28m
Waxing Crescent, 7% of the Moon is Illuminated
Mar 7
Waxing Crescent
Mar 12
First Quarter
Mar 19
Full
Mar 26
Last Quarter
Apr 3
New

Hourly Weather History & Observations

Time (EST) Temp. Windchill Dew Point Humidity Pressure Visibility Wind Dir Wind Speed Gust Speed Precip Events Conditions
12:34 AM 19.4 °F 9.5 °F 15.8 °F 86% 29.94 in 0.5 mi ENE 8.1 mph - 0.04 in Fog , Snow Snow
12:51 AM 18.0 °F 6.9 °F 16.0 °F 92% 30.00 in 0.5 mi NE 9.2 mph - 0.05 in Fog , Snow Snow
1:51 AM 17.1 °F 4.3 °F 14.0 °F 88% 29.98 in 0.5 mi NNE 11.5 mph - 0.03 in Fog , Snow Snow
2:51 AM 16.0 °F 1.7 °F 12.9 °F 88% 29.94 in 0.8 mi NNE 13.8 mph - 0.01 in Snow Light Snow
2:59 AM 15.8 °F -0.2 °F 12.2 °F 86% 29.86 in 0.8 mi NNE 17.3 mph 21.9 mph 0.01 in Snow Light Snow
3:24 AM 15.8 °F 1.4 °F 12.2 °F 86% 29.84 in 0.5 mi NNE 13.8 mph 24.2 mph 0.01 in Fog , Snow Snow
3:51 AM 16.0 °F 0.6 °F 12.9 °F 88% 29.92 in 0.5 mi NNE 16.1 mph 20.7 mph 0.02 in Fog , Snow Snow
4:51 AM 17.1 °F 5.8 °F 14.0 °F 88% 29.92 in 0.5 mi NNE 9.2 mph 19.6 mph 0.02 in Fog , Snow Snow
5:34 AM 15.8 °F 2.7 °F 12.2 °F 86% 29.85 in 0.8 mi NNE 11.5 mph 20.7 mph 0.01 in Snow Light Snow
5:51 AM 16.0 °F 1.7 °F 12.9 °F 88% 29.91 in 0.5 mi NNE 13.8 mph 20.7 mph 0.01 in Fog , Snow Snow
6:05 AM 15.8 °F -0.2 °F 12.2 °F 86% 29.80 in 0.2 mi NNE 17.3 mph 24.2 mph 0.01 in Fog , Snow Heavy Snow
6:39 AM 15.8 °F 2.1 °F 12.2 °F 86% 29.84 in 0.5 mi NNE 12.7 mph - 0.05 in Fog , Snow Snow
6:51 AM 16.0 °F 2.9 °F 12.9 °F 88% 29.92 in 0.8 mi North 11.5 mph - 0.05 in Snow Light Snow
7:02 AM 15.8 °F 4.2 °F 12.2 °F 86% 29.84 in 1.0 mi North 9.2 mph 16.1 mph 0.00 in Snow Light Snow
7:20 AM 15.8 °F 6.1 °F 12.2 °F 86% 29.84 in 0.5 mi Variable 6.9 mph - 0.01 in Fog , Snow Snow
7:51 AM 14.0 °F 3.9 °F 10.9 °F 88% 29.96 in 0.8 mi North 6.9 mph 18.4 mph 0.01 in Snow Light Snow
8:10 AM 14.0 °F -0.2 °F 10.4 °F 86% 29.86 in 0.2 mi North 12.7 mph 19.6 mph 0.01 in Fog , Snow Heavy Snow
8:32 AM 14.0 °F 3.9 °F 10.4 °F 86% 29.86 in 0.5 mi North 6.9 mph 16.1 mph 0.01 in Fog , Snow Snow
8:51 AM 14.0 °F 5.1 °F 10.9 °F 88% 29.95 in 0.5 mi Variable 5.8 mph - 0.01 in Fog , Snow Snow
9:14 AM 14.0 °F 3.9 °F 10.4 °F 86% 29.88 in 0.2 mi North 6.9 mph - 0.01 in Fog , Snow Heavy Snow
9:29 AM 15.8 °F 6.1 °F 10.4 °F 79% 29.89 in 0.5 mi Variable 6.9 mph - 0.01 in Fog , Snow Snow
9:51 AM 15.1 °F 6.4 °F 10.9 °F 84% 29.99 in 0.5 mi Variable 5.8 mph 16.1 mph 0.01 in Fog , Snow Snow
10:04 AM 15.8 °F 4.2 °F 10.4 °F 79% 29.90 in 0.5 mi North 9.2 mph 18.4 mph 0.00 in Fog , Snow Light Snow
10:40 AM 15.8 °F 5.1 °F 10.4 °F 79% 29.91 in 0.5 mi NNW 8.1 mph 17.3 mph 0.00 in Fog , Snow Snow
10:48 AM 15.8 °F 5.1 °F 12.2 °F 86% 29.91 in 0.2 mi NNW 8.1 mph 16.1 mph 0.00 in Fog , Snow Heavy Snow
10:51 AM 15.1 °F 5.2 °F 10.9 °F 84% 30.00 in 0.2 mi North 6.9 mph - 0.00 in Fog , Snow Heavy Snow
11:10 AM 15.8 °F 7.2 °F 10.4 °F 79% 29.92 in 0.2 mi Variable 5.8 mph - 0.01 in Fog , Snow Snow
11:40 AM 14.0 °F 3.9 °F 8.6 °F 79% 29.94 in 0.5 mi Variable 6.9 mph 18.4 mph 0.01 in Snow Snow
11:51 AM 14.0 °F 2.9 °F 9.0 °F 80% 30.04 in 0.5 mi NNW 8.1 mph 18.4 mph 0.01 in Snow Snow
12:07 PM 15.8 °F 7.2 °F 10.4 °F 79% 29.95 in 0.8 mi Variable 5.8 mph - 0.00 in Snow Light Snow
12:19 PM 15.8 °F 6.1 °F 10.4 °F 79% 29.95 in 1.0 mi Variable 6.9 mph - 0.00 in Snow Light Snow
12:30 PM 15.8 °F 7.2 °F 10.4 °F 79% 29.96 in 1.2 mi Variable 5.8 mph 19.6 mph 0.00 in Snow Light Snow
12:51 PM 16.0 °F 8.8 °F 10.9 °F 81% 30.05 in 1.5 mi Variable 4.6 mph 16.1 mph 0.00 in Snow Light Snow
1:08 PM 15.8 °F 4.2 °F 10.4 °F 79% 29.97 in 2.0 mi WNW 9.2 mph - 0.00 in Snow Light Snow
1:29 PM 17.6 °F 7.3 °F 12.2 °F 79% 29.97 in 3.0 mi NW 8.1 mph - 0.00 in Snow Light Snow
1:51 PM 19.0 °F 11.1 °F 14.0 °F 81% 30.08 in 6.0 mi Variable 5.8 mph - 0.00 in   Haze
2:19 PM 19.4 °F 10.4 °F 14.0 °F 80% 30.01 in 3.0 mi Variable 6.9 mph - N/A   Haze
2:51 PM 18.0 °F 8.7 °F 12.9 °F 81% 30.13 in 4.0 mi Variable 6.9 mph - N/A   Haze
3:37 PM 19.4 °F 11.5 °F 12.2 °F 74% 30.05 in 10.0 mi Variable 5.8 mph - N/A   Mostly Cloudy
3:51 PM 19.9 °F 11.1 °F 12.9 °F 74% 30.15 in 10.0 mi WNW 6.9 mph - N/A   Scattered Clouds
4:51 PM 19.0 °F 11.1 °F 12.0 °F 74% 30.18 in 10.0 mi West 5.8 mph - N/A   Partly Cloudy
5:51 PM 17.1 °F - 10.9 °F 77% 30.22 in 10.0 mi Calm Calm - N/A   Clear
6:11 PM 17.6 °F - 12.2 °F 79% 30.14 in 10.0 mi Calm Calm - N/A   Mostly Cloudy
6:36 PM 15.8 °F - 10.4 °F 79% 30.16 in 10.0 mi Calm Calm - N/A   Scattered Clouds
6:51 PM 14.0 °F - 10.0 °F 84% 30.27 in 10.0 mi Calm Calm - N/A   Partly Cloudy
7:51 PM 8.1 °F - 6.1 °F 92% 30.32 in 10.0 mi Calm Calm - N/A   Clear
8:51 PM 1.9 °F - 1.0 °F 96% 30.35 in 10.0 mi Calm Calm - N/A   Clear
9:51 PM 1.0 °F - -2.9 °F 83% 30.36 in 10.0 mi Calm Calm - N/A   Clear
10:15 PM -2.2 °F - -4.0 °F 92% 30.24 in 1.8 mi Calm Calm - N/A   Clear
10:21 PM -4.0 °F - -5.8 °F 92% 30.24 in 3.0 mi Calm Calm - N/A   Clear
10:51 PM -2.9 °F - -7.1 °F 82% 30.38 in 10.0 mi Calm Calm - N/A   Clear
11:51 PM -5.8 °F - -9.4 °F 84% 30.26 in 10.0 mi Calm Calm - N/A   Clear